User: anonymous   Login
Location: Vaughan
(31.9146°N, 97.1736°W)
Time: 02:39:13
(UTC+00:00)
Language:

Centaur D-1A AC-31 - Orbit

View from above orbital plane
View from above orbital plane
View from above satellite
View from above satellite

Ground track
Ground track

The orbit is defined by the following mean orbital elements,

1 06797U          26040.05243951 +.00000000 +00000-0 +85168-3 0 00004
2 06797  27.2262 229.3105 7236297 221.2399  52.1611  2.21915978    08
Epoch (UTC): 09 February 2026 01:15:30
Eccentricity: 0.7236297
inclination: 27.2262°
perigee height: 484 km
apogee height: 36416 km
right ascension of ascending node: 229.3105°
argument of perigee: 221.2399°
revolutions per day: 2.21915978
mean anomaly at epoch: 52.1611°

The dashed part of the orbit path shows where the satellite is in the earth's shadow,  

DLR